Regional Weather Roundup
Issued by NWS Huntsville, AL

Home | Current Version | Previous Version | Text Only | Print | Product List | Glossary On
Versions: 1 2 3 4 5 6 7 8 9 10 11 12 13 14 15 16 17 18 19 20 21 22 23 24 25 26 27 28 29 30 31 32 33 34 35 36 37 38 39 40 41 42 43 44 45 46 47 48 49 50
000
ASUS44 KHUN 281910
RWRHUN

WEATHER ROUNDUP FOR THE TENNESSEE VALLEY
NATIONAL WEATHER SERVICE HUNTSVILLE AL
200 PM CDT TUE JUL 28 2015

ALZ001>004-282000-
NORTHWEST ALABAMA

CITY           SKY/WX    TMP DP  RH WIND       PRES   REMARKS
BANKHEAD NF      N/A     85  79  82 CALM        N/A  HX  98
SHOALS AIRPORT MOSUNNY   96  73  47 W9        30.01F HX 105
SHOALS TVA RES   N/A     93 N/A N/A MISG        N/A
$$

ALZ005>007-016-282000-
NORTH CENTRAL ALABAMA

CITY           SKY/WX    TMP DP  RH WIND       PRES   REMARKS
DECATUR AP     SUNNY     95  70  44 W9        30.00F HX 101
HUNTSVILLE AP  MOSUNNY   99  68  36 VRB6      29.99F HX 104
HUN NWS/UAH      N/A     96  63  33 W7          N/A  HX  97
MERIDIANVILLE  MOSUNNY   91  68  46 SE7       30.00F HX  95
REDSTONE ARSN  MOSUNNY   96  71  44 W8        29.98F HX 102
VINEMONT AP    FAIR      90  71  53 SW6       30.05F HX  96
$$

ALZ008>010-282000-
NORTHEAST ALABAMA

CITY           SKY/WX    TMP DP  RH WIND       PRES   REMARKS
ALBERTVILLE    MOSUNNY   93  77  59 W10       30.01F HX 107
FORT PAYNE     MOSUNNY   93  64  38 NW3       29.98F HX  95
SCOTTSBORO AP  LGT RAIN  84  75  74 N8G17     30.00S HX  92
SCOTTSBORO HCN   N/A     91 N/A N/A MISG        N/A
VALLEY HEAD      N/A     91 N/A N/A MISG        N/A
$$

TNZ076-096-097-282000-
SOUTHEASTERN MIDDLE TENNESSEE

CITY           SKY/WX    TMP DP  RH WIND       PRES   REMARKS
TULLAHOMA      MOSUNNY   93  70  46 W7        30.03F HX  99
WINCHESTER     MOSUNNY   90  73  58 NW7       30.02F HX  98
$$

...SURROUNDING SITES...

CITY           SKY/WX    TMP DP  RH WIND       PRES   REMARKS
ATLANTA        MOSUNNY   93  71  48 W6        29.99F HX 100
ANNISTON       SUNNY     94  73  50 S6        29.99F HX 103
BIRMINGHAM     MOSUNNY   95  73  48 VRB6      30.02F HX 104
CHATTANOOGA    PTSUNNY   92  74  55 SE6       29.98F HX 101
DALTON         PTSUNNY   82  72  69 W9G22     30.00S THUNDER
GADSDEN        MOSUNNY   95  68  41 N3        29.97F HX  99
GOLDEN TRNGL   PTSUNNY   99  70  39 NW5       29.99F HX 105
HALEYVILLE     FAIR      93  73  52 VRB3      30.05F HX 101
JACKSON TN     SUNNY     96  76  52 W9G16     29.99F HX 109
MEMPHIS        MOSUNNY   96  74  48 NW5       30.00F HX 107
NASHVILLE      MOSUNNY   94  73  50 NW9       29.99F HX 103
ROME           LGT RAIN  88  72  58 N6        29.97F HX  94
SAVANNAH       SUNNY     93  32  11 W6        30.00F
TUPELO         SUNNY     95  70  44 CALM      30.00F HX 101
TUSCALOOSA     MOSUNNY   97  72  44 W8        29.98F HX 105
$$

...GULF COAST WEATHER...

CITY           SKY/WX    TMP DP  RH WIND       PRES   REMARKS
GULFPORT       PTSUNNY   93  72  50 S8        29.99S HX 101
PASCAGOULA     SUNNY     96  73  47 CALM      29.99S HX 105
MOBILE         PTSUNNY   94  74  52 CALM      30.00F HX 104
GULF SHORES    CLOUDY    91  75  59 W7        29.98S HX 102
PENSACOLA      MOSUNNY   95  73  48 S12       29.97F HX 104
DESTIN         MOSUNNY   94  74  52 VRB6      29.95F HX 104
PANAMA CITY    MOSUNNY   92  78  63 W13       29.95F HX 107
APPALACHICOLA  MOSUNNY   94  77  57 S13       29.95F HX 108
$$



USA.gov is the U.S. government's official web portal to all federal, state and local government web resources and services.